Hourly Data Report for October 05, 2016

All times are specified in Local Standard Time (LST). Add 1 hour to adjust for Daylight Saving Time where and when it is observed.

ARVIAT A
NUNAVUT

61°05'38.000" N
94°04'18.000" W
10.40 m
2300427
71174
YEK

Download Data

Hourly Data (October 2016)
Hourly Data Report for October 5, 2016
Temp Definition
°C
Dew Point Temp Definition
°C
Rel Hum Definition
%
Wind Dir Definition
10's deg

Wind Spd Definition
km/h
Visibility Definition
km
Stn Press Definition
kPa
Hmdx Definition


Wind Chill Definition


Weather Definition


TIME
00:00 Legend Double Dagger -1.7 -4.1 84 33 28 16.1 102.33   -8 LegendNANA
01:00 Legend Double Dagger -2.1 -4.2 86 34 26 16.1 102.38   -9 LegendNANA
02:00 Legend Double Dagger -2.3 -4.2 87 35 26 16.1 102.42   -9 LegendNANA
03:00 Legend Double Dagger -2.5 -3.9 90 32 18 16.1 102.45   -8 LegendNANA
04:00 Legend Double Dagger -2.8 -4.1 91 34 22 16.1 102.48   -9 LegendNANA
05:00 Legend Double Dagger -3.3 -4.0 95 33 17 16.1 102.50   -9 LegendNANA
06:00 Legend Double Dagger -3.0 -3.6 96 33 18 16.1 102.51   -9 LegendNANA
07:00 Legend Double Dagger -2.4 -3.1 95 33 21 16.1 102.51   -8 LegendNANA
08:00 Legend Double Dagger -1.8 -2.4 96 33 17 16.1 102.52   -7 LegendNANA
09:00 Legend Double Dagger -1.0 -2.1 92 34 22 16.1 102.53   -7 LegendNANA
10:00 Legend Double Dagger -0.6 -1.5 94 35 18 16.1 102.54   -6 LegendNANA
11:00 Legend Double Dagger 0.6 -1.8 84 36 24 16.1 102.52     LegendNANA
12:00 Legend Double Dagger 1.7 -3.1 70 1 22 16.1 102.51     LegendNANA
13:00 Legend Double Dagger 1.4 -0.8 85 1 21 14.5 102.50     LegendNANA
14:00 Legend Double Dagger 1.7 -1.6 79 3 28 16.1 102.46     LegendNANA
15:00 Legend Double Dagger 1.6 -2.8 73 4 24 16.1 102.50     LegendNANA
16:00 Legend Double Dagger 1.7 -2.6 73 2 26 16.1 102.45     LegendNANA
17:00 Legend Double Dagger 1.8 -2.2 75 4 24 16.1 102.42     LegendNANA
18:00 Legend Double Dagger 2.0 -1.8 76 4 24 16.1 102.44     LegendNANA
19:00 Legend Double Dagger 2.1 -1.5 77 4 22 16.1 102.44     LegendNANA
20:00 Legend Double Dagger 0.8 0.2 96 7 22 4.8 102.44     Rain,Snow
21:00 Legend Double Dagger 0.8 0.5 98 6 17 6.4 102.42     Snow
22:00 Legend Double Dagger 0.9 0.5 97 6 22 8.1 102.40     Rain,Fog
23:00 Legend Double Dagger 0.6 0.6 100 3 17 4.8 102.36     Snow

Notes on Data Quality.

Legend

  • E = Estimated
  • M = Missing
  • NA = Not Available
  • ‡ = Partner data that is not subject to review by the National Climate Archives
Date modified: